Change the Weather History Date:

Friday, January 25, 2013

  Actual Average Record
Temperature  
Mean Temperature 32 °F -  
Max Temperature 34 °F 32 °F 52 °F (1970)
Min Temperature 30 °F 13 °F -20 °F (1989)
Degree Days  
Heating Degree Days 33    
Moisture  
Dew Point 31 °F    
Average Humidity 94    
Maximum Humidity 100    
Minimum Humidity 87    
Precipitation  
Precipitation 0.00 in - - ()
Sea Level Pressure  
Sea Level Pressure 30.25 in    
Wind  
Wind Speed 2 mph (South)    
Max Wind Speed 8 mph    
Max Gust Speed -    
Visibility 1 miles    
Events Fog    
Averages and records for this station are not official NWS values.
T = Trace of Precipitation, MM = Missing Value Source: NWS Daily Summary

Daily Weather History Graph

Daily Weather History Graph

Search for Another Location

Airport or City:

Trip Planner

Search our weather history database for the weather conditions in past years. The results will help you decide how hot, cold, wet, or windy it might be!

Date:

Astronomy

Jan. 25, 2013 Rise Set
Actual Time 7:45 AM MST 5:34 PM MST
Civil Twilight 7:15 AM MST 6:04 PM MST
Nautical Twilight 6:42 AM MST 6:38 PM MST
Astronomical Twilight 6:09 AM MST 7:10 PM MST
Moon 4:35 PM MST (1/25) 6:27 AM MST (1/25)
Length of Visible Light 10h 48m
Length of Day
9h 48m
Waxing Gibbous, 98% of the Moon is Illuminated
Jan 25
Waxing Gibbous
Jan 26
Full
Feb 3
Last Quarter
Feb 10
New
Feb 17
First Quarter

Hourly Weather History & Observations

Time (MST) Temp. Windchill Dew Point Humidity Pressure Visibility Wind Dir Wind Speed Gust Speed Precip Events Conditions
12:05 AM 32.0 °F 28.7 °F 30.2 °F 93% 30.33 in 1.0 mi ESE 3.5 mph - N/A   Overcast
12:51 AM 32.0 °F 27.5 °F 30.9 °F 96% 30.37 in 0.8 mi West 4.6 mph - N/A   Overcast
1:09 AM 32.0 °F - 30.2 °F 93% 30.30 in 1.0 mi Calm Calm - N/A   Overcast
1:16 AM 32.0 °F - 30.2 °F 93% 30.31 in 1.2 mi Calm Calm - N/A   Overcast
1:51 AM 32.0 °F - 30.9 °F 96% 30.37 in 1.2 mi Calm Calm - N/A   Overcast
2:08 AM 32.0 °F - 30.2 °F 93% 30.30 in 1.2 mi Calm Calm - N/A   Overcast
2:25 AM 32.0 °F - 30.2 °F 93% 30.31 in 1.2 mi Calm Calm - N/A   Overcast
2:51 AM 32.0 °F - 30.0 °F 92% 30.36 in 0.8 mi Calm Calm - N/A   Overcast
3:10 AM 32.0 °F 28.7 °F 30.2 °F 93% 30.30 in 0.8 mi North 3.5 mph - N/A   Overcast
3:51 AM 30.9 °F 27.5 °F 30.0 °F 96% 30.35 in 0.8 mi NNE 3.5 mph - N/A   Overcast
4:01 AM 30.2 °F - 30.2 °F 100% 30.29 in 1.0 mi Calm Calm - N/A   Overcast
4:10 AM 30.2 °F - 30.2 °F 100% 30.28 in 0.8 mi Calm Calm - N/A   Overcast
4:25 AM 32.0 °F - 30.2 °F 93% 30.28 in 1.0 mi Calm Calm - N/A   Overcast
4:43 AM 32.0 °F - 30.2 °F 93% 30.28 in 0.8 mi Calm Calm - N/A   Overcast
4:51 AM 32.0 °F - 30.0 °F 92% 30.34 in 1.0 mi Calm Calm - N/A   Overcast
4:57 AM 32.0 °F - 30.2 °F 93% 30.28 in 0.8 mi Calm Calm - N/A   Overcast
5:51 AM 30.0 °F 26.5 °F 28.9 °F 96% 30.34 in 0.8 mi SSW 3.5 mph - N/A   Overcast
5:57 AM 30.2 °F 26.7 °F 28.4 °F 93% 30.29 in 0.8 mi SSW 3.5 mph - N/A   Overcast
6:51 AM 30.0 °F 26.5 °F 28.9 °F 96% 30.35 in 0.2 mi WSW 3.5 mph - N/A Fog Light Freezing Fog
7:51 AM 30.9 °F - 30.0 °F 96% 30.36 in 0.2 mi Calm Calm - N/A Fog Light Freezing Fog
8:51 AM 30.9 °F - 30.0 °F 96% 30.35 in 0.2 mi Calm Calm - N/A Fog Light Freezing Fog
9:51 AM 32.0 °F - 30.9 °F 96% 30.35 in 0.2 mi Calm Calm - N/A Fog Fog
10:51 AM 32.0 °F - 32.0 °F 100% 30.34 in 0.2 mi Calm Calm - N/A Fog Fog
11:51 AM 33.1 °F - 32.0 °F 96% 30.31 in 0.2 mi Calm Calm - N/A Fog Fog
12:51 PM 33.1 °F - 32.0 °F 96% 30.28 in 0.2 mi Calm Calm - N/A Fog Fog
1:09 PM 33.8 °F - 33.8 °F 100% 30.23 in 0.8 mi Calm Calm - N/A   Overcast
1:45 PM 33.8 °F - 32.0 °F 93% 30.21 in 1.0 mi Calm Calm - N/A   Overcast
1:51 PM 34.0 °F - 32.0 °F 92% 30.26 in 1.0 mi Calm Calm - N/A   Overcast
2:11 PM 33.8 °F - 32.0 °F 93% 30.20 in 0.8 mi Calm Calm - N/A   Overcast
2:27 PM 33.8 °F - 32.0 °F 93% 30.20 in 0.5 mi Calm Calm - N/A Fog Fog
2:42 PM 33.8 °F - 32.0 °F 93% 30.21 in 0.8 mi Calm Calm - N/A   Overcast
2:51 PM 33.1 °F - 32.0 °F 96% 30.25 in 0.8 mi Calm Calm - N/A   Overcast
3:22 PM 33.8 °F - 32.0 °F 93% 30.20 in 1.0 mi Calm Calm - N/A   Overcast
3:36 PM 33.8 °F - 32.0 °F 93% 30.19 in 1.0 mi Calm Calm - N/A   Overcast
3:51 PM 33.1 °F 27.7 °F 32.0 °F 96% 30.25 in 1.2 mi West 5.8 mph - N/A   Overcast
3:57 PM 33.8 °F 30.8 °F 30.2 °F 87% 30.19 in 1.2 mi West 3.5 mph - N/A   Overcast
4:51 PM 34.0 °F - 32.0 °F 92% 30.23 in 1.2 mi Calm Calm - N/A   Overcast
5:18 PM 33.8 °F - 32.0 °F 93% 30.18 in 1.5 mi Calm Calm - N/A   Overcast
5:51 PM 33.1 °F - 32.0 °F 96% 30.22 in 2.0 mi Calm Calm - N/A   Overcast
6:17 PM 33.8 °F 30.8 °F 32.0 °F 93% 30.16 in 3.0 mi South 3.5 mph - N/A   Overcast
6:36 PM 33.8 °F 27.0 °F 30.2 °F 87% 30.17 in 2.5 mi SSW 8.1 mph - N/A   Overcast
6:51 PM 33.1 °F 28.7 °F 30.9 °F 92% 30.22 in 2.5 mi SSW 4.6 mph - N/A   Overcast
7:01 PM 33.8 °F 30.8 °F 30.2 °F 87% 30.17 in 2.5 mi SSW 3.5 mph - N/A   Overcast
7:13 PM 33.8 °F 29.6 °F 30.2 °F 87% 30.17 in 2.5 mi SSW 4.6 mph - N/A   Overcast
7:51 PM 33.1 °F 30.0 °F 32.0 °F 96% 30.20 in 1.8 mi South 3.5 mph - N/A   Overcast
8:11 PM 33.8 °F 29.6 °F 32.0 °F 93% 30.15 in 1.2 mi WSW 4.6 mph - N/A   Overcast
8:30 PM 33.8 °F 30.8 °F 30.2 °F 87% 30.15 in 1.0 mi East 3.5 mph - N/A   Overcast
8:41 PM 33.8 °F - 32.0 °F 93% 30.16 in 1.2 mi Calm Calm - N/A   Overcast
8:51 PM 33.1 °F - 32.0 °F 96% 30.20 in 1.5 mi Calm Calm - N/A   Overcast
9:13 PM 33.8 °F 27.7 °F 32.0 °F 93% 30.15 in 1.5 mi East 6.9 mph - N/A   Overcast
9:23 PM 33.8 °F 30.8 °F 32.0 °F 93% 30.15 in 1.8 mi East 3.5 mph - N/A   Overcast
9:51 PM 33.1 °F - 32.0 °F 96% 30.19 in 1.5 mi Calm Calm - N/A   Overcast
11:14 PM 33.8 °F 30.8 °F 30.2 °F 87% 30.14 in 0.8 mi ESE 3.5 mph - N/A   Overcast
11:25 PM 33.8 °F 29.6 °F 30.2 °F 87% 30.14 in 1.0 mi East 4.6 mph - N/A   Overcast
11:51 PM 33.1 °F - 32.0 °F 96% 30.18 in 1.5 mi Calm Calm - N/A   Overcast